[Iaude] MPEC N64: 2024 NC1 [a=1.87,e=0.55,i=7.2,H=21.6,PHA]
    mpec at cfa.harvard.edu 
    mpec at cfa.harvard.edu
       
    Fri Jul  5 13:37:34 EDT 2024
    
    
  
M.P.E.C. 2024-N64                                  Issued 2024 July 5, 17:36 UT
     The Minor Planet Electronic Circulars contain information on unusual
         minor planets, routine data on comets and natural satellites,
         and occasional editorial announcements.  They are published
    on behalf of Division F of the International Astronomical Union by the
          Minor Planet Center, Smithsonian Astrophysical Observatory,
                          Cambridge, MA 02138, U.S.A.
			  
             Prepared using the Tamkin Foundation Computer Network
                              MPC at CFA.HARVARD.EDU
            URL https://www.minorplanetcenter.net/    ISSN 1523-6714
                                    2024 NC1                                    
Observations:
     K24N01C  C2024 06 03.53560920 40 10.594-03 52 57.36         22.70GVEN064F52
     K24N01C  C2024 06 03.54562020 40 12.424-03 52 46.22         22.08GVEN064F52
     K24N01C  C2024 06 03.56550520 40 16.018-03 52 24.29         22.45GVEN064F52
     K24N01C  C2024 06 07.55284620 53 23.329-02 34 25.42         21.95GVEN064F51
     K24N01C  C2024 06 07.56514520 53 25.818-02 34 10.14         21.39GVEN064F51
     K24N01C  C2024 06 07.57746720 53 28.303-02 33 54.66         22.04GVEN064F51
     K24N01C  C2024 06 07.58984120 53 30.804-02 33 39.25         21.82GVEN064F51
     K24N01C  C2024 06 09.50592121 00 22.782-01 52 59.14         21.85GVEN064F51
     K24N01C  C2024 06 09.51638121 00 25.051-01 52 45.20         22.13GVEN064F51
     K24N01C  C2024 06 09.52683721 00 27.285-01 52 31.61         22.23GVEN064F51
     K24N01C  C2024 06 16.54943221 29 35.501+00 57 58.70         21.37GVEN064F52
     K24N01C* C2024 07 03.54244623 24 13.761+10 48 04.73         21.18wXEN064F52
     K24N01C  C2024 07 03.55494123 24 20.649+10 48 35.48         21.27wXEN064F52
     K24N01C  C2024 07 03.57992523 24 34.301+10 49 36.95         20.95wXEN064F52
     K24N01C 6C2024 07 04.11889 23 29 39.75 +11 11 25.3          20.9 GVEN064Z84
     K24N01C 6C2024 07 04.11900 23 29 39.83 +11 11 25.5          20.5 GVEN064Z84
     K24N01C 6C2024 07 04.12981 23 29 45.87 +11 11 52.3          21.1 GVEN064Z84
     K24N01C 3C2024 07 04.59800723 34 15.429+11 31 07.26         21.26GVEN064T14
     K24N01C 3C2024 07 04.59898223 34 15.983+11 31 09.66         21.30GVEN064T14
     K24N01C 3C2024 07 04.59996023 34 16.540+11 31 12.07         21.22GVEN064T14
     K24N01C KC2024 07 04.99845723 38 10.87 +11 47 07.5          21.2 GVEN064L01
     K24N01C KC2024 07 05.00068123 38 12.11 +11 47 13.5          20.9 GVEN064L01
     K24N01C IC2024 07 05.00290423 38 13.39 +11 47 18.8          20.6 GVEN064L01
     K24N01C KB2024 07 05.02286 23 38 25.00 +11 48 06.4          20.7 RZEN064106
     K24N01C KB2024 07 05.02743 23 38 27.70 +11 48 18.5          20.0 RZEN064106
     K24N01C KB2024 07 05.03190 23 38 30.31 +11 48 29.6          20.2 RZEN064106
     K24N01C KB2024 07 05.03637 23 38 32.90 +11 48 40.8          20.1 RZEN064106
     K24N01C KB2024 07 05.03867323 38 34.52 +11 48 46.0          20.9 GXEN064I93
     K24N01C KB2024 07 05.04381123 38 37.54 +11 48 58.7          20.3 GXEN064I93
     K24N01C KB2024 07 05.04880223 38 40.44 +11 49 11.0          20.7 GXEN064I93
Observer details:
106 Crni Vrh.  Observer H. Mikuz.  0.60-m f/3.3 reflector + CMO.
F51 Pan-STARRS 1, Haleakala.  Observers J. Herman, T. Lowe, P. Minguez, A.
    Schultz, I. Smith.  Measurers K. Chambers, T. de Boer, J. Fairlamb, H.
    Gao, M. Huber, C.-C. Lin, E. Magnier, Y. Ramanjooloo, R. Wainscoat, R.
    Weryk.  1.8-m Ritchey-Chretien + CCD.
F52 Pan-STARRS 2, Haleakala.  Observers J. Herman, T. Lowe, P. Minguez, A.
    Schultz, I. Smith.  Measurers K. Chambers, T. de Boer, J. Fairlamb, H.
    Gao, M. Huber, C.-C. Lin, E. Magnier, Y. Ramanjooloo, R. Wainscoat, R.
    Weryk.  1.8-m Ritchey-Chretien + CCD.
I93 St Pardon de Conques.  Observer F. Losse.  0.40-m f/3.7 reflector + CMO.
L01 Visnjan Observatory, Tican.  Observer K. Korlevic.  1.0-m f/2.9 reflector
    + CCD.
T14 Canada-France-Hawaii Telescope, Maunakea.  Observers R. Wainscoat, H.
    Januszewski, V. Khatu.  Measurers R. Weryk, R. Wainscoat.  3.6-m f/4.1
    reflector + CCD.
Z84 Calar Alto-Schmidt.  Observers M. Micheli, R. Kresken.  Measurers R.
    Kresken, M. Micheli, F. Ocana, L. Conversi.  0.8-m f/3 Schmidt + CCD.
Orbital elements:
2024 NC1                                            PHA, Earth MOID = 0.0253 AU
Epoch 2024 Mar. 31.0 TT = JDT 2460400.5                 Bell                    
M 302.37883              (2000.0)            P               Q                  
n   0.38621943     Peri.  225.68923     +0.99289676     -0.08632295             
a   1.8674399      Node   139.05659     +0.10758661     +0.94526163             
e   0.5466416      Incl.    7.17776     -0.05080491     +0.31468841             
P   2.55           H   21.67          G   0.15           U   7                  
Residuals in seconds of arc
240603 F52  0.3-  0.0     240616 F52  0.1-  0.1-    240704 L01  0.7+  0.1-
240603 F52  0.0   0.0     240703 F52  0.3-  0.0     240705 L01  0.1-  0.4+
240603 F52  0.0   0.1-    240703 F52  0.3+  0.0     240705 L01  0.4-  0.2+
240607 F51  0.1-  0.1-    240703 F52  0.1-  0.0     240705 106  0.4-  1.0-
240607 F51  0.1+  0.0     240704 Z84  0.0   0.0     240705 106  0.1+  0.2-
240607 F51  0.2+  0.2+    240704 Z84  0.2+  0.1-    240705 106  0.2+  0.1-
240607 F51  0.3+  0.3+    240704 Z84  0.2-  0.1+    240705 106  0.0   0.1+
240609 F51  0.3-  0.2-    240704 T14  0.0   0.1-    240705 I93  0.4-  0.0
240609 F51  0.1+  0.1+    240704 T14  0.0   0.1-    240705 I93  0.1-  0.1+
240609 F51  0.0   0.0     240704 T14  0.1+  0.1-    240705 I93  0.3-  0.0
Ephemeris:
2024 NC1                 a,e,i = 1.87, 0.55, 7                   q = 0.8466
Date    TT    R. A. (2000) Decl.     Delta      r    Elong.  Phase     V
2024 06 05    20 44 49.3 -03 25 12   0.5004  1.3412   120.7    40.6    22.4
...
2024 06 20    21 46 52.1 +02 36 29   0.3478  1.2182   117.9    47.5    21.6
...
2024 06 28    22 37 41.0 +07 08 29   0.2851  1.1537   111.9    54.8    21.3
...
2024 07 04    23 28 30.5 +11 06 49   0.2508  1.1066   104.5    62.8    21.1
2024 07 05    23 38 09.8 +11 47 31   0.2464  1.0989   103.0    64.3    21.1
2024 07 06    23 48 08.8 +12 27 58   0.2425  1.0912   101.5    65.9    21.1
...
2024 07 12    00 53 51.6 +16 09 10   0.2285  1.0463    91.1    76.3    21.2
...
2024 07 20    02 26 21.8 +18 58 59   0.2373  0.9904    77.1    89.4    21.7
...
2024 08 04    04 39 13.3 +18 18 28   0.3197  0.9041    61.0   101.0    22.6
M. P. C. Staff               (C) Copyright 2024 MPC           M.P.E.C. 2024-N64
    
    
More information about the Iaude
mailing list